| time (UTC) | temp F | wind direction | speed MPH | gust MPH | rain 1hr in | rain 24hr in | rain mn in | humidity % | barometer mb |
| 20260831232004 | 85 | 207 | 0.0 | 1.0 | 0.00 | 0.00 | 0.00 | 71 | 1017.0 |
| 20260831231504 | 85 | 338 | 0.0 | 1.0 | 0.00 | 0.00 | 0.00 | 71 | 1017.0 |
| 20260831231003 | 85 | 0 | 0.0 | 1.0 | 0.00 | 0.00 | 0.00 | 70 | 1017.0 |
| 20260831230504 | 86 | 327 | 0.0 | 1.0 | 0.00 | 0.00 | 0.00 | 69 | 1016.9 |
| 20260831230004 | 86 | 332 | 0.0 | 1.0 | 0.00 | 0.00 | 0.00 | 68 | 1016.9 |
| 20260831225505 | 87 | 226 | 0.0 | 1.0 | 0.00 | 0.00 | 0.00 | 67 | 1017.0 |
| 20260831225004 | 87 | 287 | 0.0 | 1.0 | 0.00 | 0.00 | 0.00 | 65 | 1017.0 |
| 20260831224004 | 88 | 358 | 0.0 | 1.0 | 0.00 | 0.00 | 0.00 | 65 | 1016.9 |
| 20260831223504 | 88 | 319 | 0.0 | 1.0 | 0.00 | 0.00 | 0.00 | 59 | 1017.0 |
| 20260831223003 | 88 | 294 | 0.0 | 1.0 | 0.00 | 0.00 | 0.00 | 60 | 1017.0 |
| 20260831222505 | 88 | 74 | 0.0 | 1.0 | 0.00 | 0.00 | 0.00 | 58 | 1017.0 |
| 20260831221504 | 89 | 303 | 0.0 | 1.0 | 0.00 | 0.00 | 0.00 | 57 | 1016.9 |
| 20260831220504 | 89 | 314 | 0.0 | 1.0 | 0.00 | 0.00 | 0.00 | 54 | 1016.9 |
| 20260831220008 | 89 | 339 | 0.0 | 1.0 | 0.00 | 0.00 | 0.00 | 57 | 1016.9 |
| 20260831215504 | 89 | 307 | 0.0 | 1.0 | 0.00 | 0.00 | 0.00 | 57 | 1016.9 |
| 20260831215004 | 90 | 351 | 0.0 | 1.0 | 0.00 | 0.00 | 0.00 | 59 | 1017.0 |
| 20260831214503 | 90 | 231 | 0.0 | 1.0 | 0.00 | 0.00 | 0.00 | 60 | 1017.0 |
| 20260831214003 | 90 | 280 | 0.0 | 1.0 | 0.00 | 0.00 | 0.00 | 57 | 1017.0 |
| 20260831213504 | 90 | 309 | 0.0 | 1.0 | 0.00 | 0.00 | 0.00 | 58 | 1017.1 |
| 20260831213005 | 90 | 312 | 0.0 | 1.0 | 0.00 | 0.00 | 0.00 | 56 | 1017.1 |
| 20260831212503 | 90 | 285 | 0.0 | 1.0 | 0.00 | 0.00 | 0.00 | 58 | 1017.1 |
| 20260831211504 | 91 | 301 | 1.0 | 1.0 | 0.00 | 0.00 | 0.00 | 53 | 1017.2 |
| 20260831211005 | 91 | 285 | 1.0 | 2.0 | 0.00 | 0.00 | 0.00 | 50 | 1017.2 |
| 20260831210504 | 91 | 293 | 0.0 | 1.0 | 0.00 | 0.00 | 0.00 | 52 | 1017.2 |
| 20260831205504 | 91 | 42 | 1.0 | 1.0 | 0.00 | 0.00 | 0.00 | 50 | 1017.3 |
| 20260831205004 | 92 | 312 | 1.0 | 1.0 | 0.00 | 0.00 | 0.00 | 52 | 1017.3 |
| 20260831204503 | 92 | 91 | 0.0 | 1.0 | 0.00 | 0.00 | 0.00 | 55 | 1017.4 |
| 20260831204004 | 93 | 312 | 0.0 | 1.0 | 0.00 | 0.00 | 0.00 | 53 | 1017.3 |
| 20260831203504 | 93 | 31 | 0.0 | 2.0 | 0.00 | 0.00 | 0.00 | 50 | 1017.4 |
| 20260831203003 | 93 | 344 | 0.0 | 2.0 | 0.00 | 0.00 | 0.00 | 48 | 1017.4 |
| 20260831202504 | 93 | 315 | 1.0 | 1.0 | 0.00 | 0.00 | 0.00 | 49 | 1017.4 |
| 20260831202003 | 92 | 50 | 0.0 | 2.0 | 0.00 | 0.00 | 0.00 | 53 | 1017.4 |
| 20260831201504 | 92 | 1 | 1.0 | 2.0 | 0.00 | 0.00 | 0.00 | 49 | 1017.4 |
| 20260831201004 | 92 | 286 | 1.0 | 3.0 | 0.00 | 0.00 | 0.00 | 51 | 1017.4 |
| 20260831200004 | 93 | 290 | 1.0 | 2.0 | 0.00 | 0.00 | 0.00 | 49 | 1017.4 |
| 20260831195504 | 92 | 122 | 1.0 | 3.0 | 0.00 | 0.00 | 0.00 | 49 | 1017.4 |
| 20260831195005 | 92 | 312 | 0.0 | 2.0 | 0.00 | 0.00 | 0.00 | 50 | 1017.4 |
| 20260831194504 | 92 | 102 | 1.0 | 3.0 | 0.00 | 0.00 | 0.00 | 50 | 1017.5 |
| 20260831194003 | 93 | 353 | 0.0 | 2.0 | 0.00 | 0.00 | 0.00 | 48 | 1017.5 |
| 20260831193504 | 93 | 205 | 0.0 | 3.0 | 0.00 | 0.00 | 0.00 | 49 | 1017.6 |
| 20260831193003 | 92 | 5 | 1.0 | 2.0 | 0.00 | 0.00 | 0.00 | 49 | 1017.6 |
| 20260831192504 | 92 | 318 | 0.0 | 2.0 | 0.00 | 0.00 | 0.00 | 50 | 1017.6 |
| 20260831192004 | 93 | 174 | 0.0 | 2.0 | 0.00 | 0.00 | 0.00 | 46 | 1017.7 |
| 20260831191503 | 92 | 225 | 0.0 | 3.0 | 0.00 | 0.00 | 0.00 | 47 | 1017.8 |
| 20260831191003 | 92 | 110 | 1.0 | 2.0 | 0.00 | 0.00 | 0.00 | 53 | 1017.9 |
| 20260831190504 | 92 | 335 | 1.0 | 2.0 | 0.00 | 0.00 | 0.00 | 50 | 1018.0 |
| 20260831190003 | 92 | 183 | 1.0 | 2.0 | 0.00 | 0.00 | 0.00 | 48 | 1018.0 |
| 20260831185004 | 90 | 307 | 1.0 | 1.0 | 0.00 | 0.00 | 0.00 | 55 | 1018.1 |
| 20260831184503 | 90 | 338 | 2.0 | 2.0 | 0.00 | 0.00 | 0.00 | 53 | 1018.2 |
| 20260831183505 | 91 | 131 | 0.0 | 2.0 | 0.00 | 0.00 | 0.00 | 54 | 1018.4 |
| 20260831183004 | 91 | 334 | 1.0 | 3.0 | 0.00 | 0.00 | 0.00 | 52 | 1018.3 |
| 20260831182504 | 92 | 242 | 1.0 | 2.0 | 0.00 | 0.00 | 0.00 | 51 | 1018.4 |
| 20260831182003 | 92 | 344 | 1.0 | 3.0 | 0.00 | 0.00 | 0.00 | 50 | 1018.4 |
| 20260831181503 | 91 | 171 | 1.0 | 2.0 | 0.00 | 0.00 | 0.00 | 52 | 1018.4 |
| 20260831180504 | 92 | 191 | 0.0 | 3.0 | 0.00 | 0.00 | 0.00 | 54 | 1018.5 |
| 20260831180003 | 92 | 199 | 0.0 | 3.0 | 0.00 | 0.00 | 0.00 | 52 | 1018.5 |
| 20260831175004 | 92 | 204 | 1.0 | 3.0 | 0.00 | 0.00 | 0.00 | 52 | 1018.5 |
| 20260831174004 | 92 | 280 | 1.0 | 2.0 | 0.00 | 0.00 | 0.00 | 52 | 1018.6 |
| 20260831173504 | 91 | 18 | 0.0 | 2.0 | 0.00 | 0.00 | 0.00 | 54 | 1018.7 |
| 20260831173003 | 91 | 270 | 0.0 | 2.0 | 0.00 | 0.00 | 0.00 | 54 | 1018.8 |
| 20260831172503 | 91 | 36 | 1.0 | 2.0 | 0.00 | 0.00 | 0.00 | 56 | 1018.8 |
| 20260831172004 | 91 | 342 | 1.0 | 2.0 | 0.00 | 0.00 | 0.00 | 54 | 1018.8 |
| 20260831171503 | 91 | 316 | 1.0 | 2.0 | 0.00 | 0.00 | 0.00 | 52 | 1018.8 |
| 20260831170503 | 90 | 10 | 1.0 | 3.0 | 0.00 | 0.00 | 0.00 | 55 | 1018.9 |
| 20260831170003 | 89 | 65 | 1.0 | 3.0 | 0.00 | 0.00 | 0.00 | 58 | 1018.9 |
| 20260831165504 | 90 | 147 | 0.0 | 2.0 | 0.00 | 0.00 | 0.00 | 57 | 1019.0 |
| 20260831165004 | 89 | 194 | 0.0 | 2.0 | 0.00 | 0.00 | 0.00 | 61 | 1019.0 |
| 20260831164503 | 89 | 5 | 1.0 | 2.0 | 0.00 | 0.00 | 0.00 | 58 | 1019.0 |
| 20260831164004 | 88 | 19 | 1.0 | 2.0 | 0.00 | 0.00 | 0.00 | 63 | 1019.0 |
| 20260831163504 | 88 | 128 | 0.0 | 3.0 | 0.00 | 0.00 | 0.00 | 61 | 1019.0 |
| 20260831163004 | 88 | 187 | 1.0 | 3.0 | 0.00 | 0.00 | 0.00 | 61 | 1019.0 |
| 20260831162504 | 89 | 351 | 0.0 | 2.0 | 0.00 | 0.00 | 0.00 | 63 | 1019.2 |
| 20260831162003 | 89 | 306 | 0.0 | 2.0 | 0.00 | 0.00 | 0.00 | 64 | 1019.3 |
| 20260831161503 | 88 | 357 | 1.0 | 2.0 | 0.00 | 0.00 | 0.00 | 63 | 1019.3 |
| 20260831161004 | 88 | 37 | 0.0 | 2.0 | 0.00 | 0.00 | 0.00 | 67 | 1019.3 |
| 20260831160503 | 87 | 350 | 1.0 | 3.0 | 0.00 | 0.00 | 0.00 | 66 | 1019.3 |
| 20260831160003 | 87 | 191 | 0.0 | 2.0 | 0.00 | 0.00 | 0.00 | 67 | 1019.4 |
| 20260831155503 | 86 | 94 | 1.0 | 2.0 | 0.00 | 0.00 | 0.00 | 65 | 1019.4 |
| 20260831155003 | 86 | 292 | 1.0 | 3.0 | 0.00 | 0.00 | 0.00 | 68 | 1019.4 |
| 20260831154004 | 87 | 112 | 1.0 | 3.0 | 0.00 | 0.00 | 0.00 | 70 | 1019.5 |
| 20260831153503 | 86 | 134 | 0.0 | 3.0 | 0.00 | 0.00 | 0.00 | 69 | 1019.6 |
| 20260831153003 | 86 | 343 | 1.0 | 2.0 | 0.00 | 0.00 | 0.00 | 72 | 1019.6 |
| 20260831151503 | 84 | 164 | 1.0 | 3.0 | 0.00 | 0.00 | 0.00 | 70 | 1019.7 |
| 20260831151005 | 84 | 129 | 2.0 | 3.0 | 0.00 | 0.00 | 0.00 | 74 | 1019.7 |
| 20260831150505 | 84 | 13 | 1.0 | 3.0 | 0.00 | 0.00 | 0.00 | 76 | 1019.7 |
| 20260831150003 | 84 | 176 | 1.0 | 3.0 | 0.00 | 0.00 | 0.00 | 74 | 1019.6 |
| 20260831145504 | 83 | 155 | 0.0 | 3.0 | 0.00 | 0.00 | 0.00 | 76 | 1019.7 |
| 20260831144004 | 82 | 52 | 2.0 | 3.0 | 0.00 | 0.00 | 0.00 | 76 | 1019.7 |
| 20260831143504 | 82 | 329 | 1.0 | 2.0 | 0.00 | 0.00 | 0.00 | 78 | 1019.7 |
| 20260831143004 | 81 | 51 | 1.0 | 3.0 | 0.00 | 0.00 | 0.00 | 81 | 1019.6 |
| 20260831142503 | 81 | 132 | 2.0 | 3.0 | 0.00 | 0.00 | 0.00 | 79 | 1019.6 |
| 20260831142004 | 81 | 1 | 1.0 | 2.0 | 0.00 | 0.00 | 0.00 | 80 | 1019.5 |
| 20260831141504 | 80 | 131 | 1.0 | 3.0 | 0.00 | 0.00 | 0.00 | 80 | 1019.5 |
| 20260831141004 | 80 | 95 | 1.0 | 2.0 | 0.00 | 0.00 | 0.00 | 82 | 1019.6 |
| 20260831140503 | 79 | 47 | 2.0 | 5.0 | 0.00 | 0.00 | 0.00 | 82 | 1019.5 |
| 20260831140004 | 79 | 85 | 1.0 | 3.0 | 0.00 | 0.00 | 0.00 | 85 | 1019.5 |
| 20260831135504 | 78 | 57 | 1.0 | 3.0 | 0.00 | 0.00 | 0.00 | 86 | 1019.5 |
| 20260831135004 | 77 | 3 | 2.0 | 5.0 | 0.00 | 0.00 | 0.00 | 88 | 1019.5 |
| 20260831134503 | 77 | 130 | 1.0 | 3.0 | 0.00 | 0.00 | 0.00 | 89 | 1019.5 |
| 20260831134004 | 76 | 38 | 1.0 | 1.0 | 0.00 | 0.00 | 0.00 | 92 | 1019.5 |
| 20260831133504 | 76 | 332 | 1.0 | 2.0 | 0.00 | 0.00 | 0.00 | 92 | 1019.5 |
| 20260831133004 | 75 | 136 | 1.0 | 2.0 | 0.00 | 0.00 | 0.00 | 93 | 1019.5 |
| 20260831132503 | 74 | 145 | 2.0 | 2.0 | 0.00 | 0.00 | 0.00 | 97 | 1019.5 |
| 20260831132004 | 74 | 140 | 2.0 | 2.0 | 0.00 | 0.00 | 0.00 | 99 | 1019.5 |
| 20260831131504 | 74 | 46 | 0.0 | 1.0 | 0.00 | 0.00 | 0.00 | 100 | 1019.5 |
| 20260831130504 | 73 | 113 | 1.0 | 2.0 | 0.00 | 0.00 | 0.00 | 100 | 1019.5 |
| 20260831130004 | 73 | 173 | 2.0 | 2.0 | 0.00 | 0.00 | 0.00 | 100 | 1019.6 |
| 20260831125503 | 72 | 95 | 1.0 | 2.0 | 0.00 | 0.00 | 0.00 | 100 | 1019.6 |
| 20260831125005 | 72 | 188 | 1.0 | 1.0 | 0.00 | 0.00 | 0.00 | 100 | 1019.6 |
| 20260831124503 | 71 | 115 | 1.0 | 1.0 | 0.00 | 0.00 | 0.00 | 100 | 1019.6 |
| 20260831124004 | 71 | 136 | 1.0 | 2.0 | 0.00 | 0.00 | 0.00 | 100 | 1019.6 |
| 20260831123503 | 70 | 100 | 0.0 | 1.0 | 0.00 | 0.00 | 0.00 | 100 | 1019.6 |
| 20260831123004 | 70 | 103 | 0.0 | 0.0 | 0.00 | 0.00 | 0.00 | 100 | 1019.6 |
| 20260831122005 | 69 | 103 | 0.0 | 0.0 | 0.00 | 0.00 | 0.00 | 100 | 1019.5 |
| 20260831121504 | 69 | 111 | 0.0 | 1.0 | 0.00 | 0.00 | 0.00 | 100 | 1019.5 |
| 20260831121004 | 68 | 180 | 0.0 | 1.0 | 0.00 | 0.00 | 0.00 | 100 | 1019.5 |
| 20260831120004 | 68 | 208 | 0.0 | 0.0 | 0.00 | 0.00 | 0.00 | 100 | 1019.5 |
| 20260831115503 | 68 | 208 | 0.0 | 0.0 | 0.00 | 0.00 | 0.00 | 100 | 1019.6 |
| 20260831115004 | 68 | 208 | 0.0 | 0.0 | 0.00 | 0.00 | 0.00 | 100 | 1019.6 |
| 20260831114504 | 67 | 208 | 0.0 | 0.0 | 0.00 | 0.00 | 0.00 | 100 | 1019.6 |
| 20260831114005 | 67 | 208 | 0.0 | 1.0 | 0.00 | 0.00 | 0.00 | 100 | 1019.6 |
| 20260831113005 | 67 | 252 | 0.0 | 0.0 | 0.00 | 0.00 | 0.00 | 100 | 1019.7 |
| 20260831112503 | 67 | 252 | 0.0 | 0.0 | 0.00 | 0.00 | 0.00 | 100 | 1019.6 |
| 20260831112004 | 67 | 252 | 0.0 | 0.0 | 0.00 | 0.00 | 0.00 | 99 | 1019.5 |
| 20260831111504 | 67 | 252 | 0.0 | 0.0 | 0.00 | 0.00 | 0.00 | 99 | 1019.5 |
| 20260831110504 | 67 | 252 | 0.0 | 0.0 | 0.00 | 0.00 | 0.00 | 99 | 1019.5 |
| 20260831110004 | 67 | 201 | 0.0 | 1.0 | 0.00 | 0.00 | 0.00 | 99 | 1019.4 |
| 20260831105505 | 67 | 190 | 0.0 | 1.0 | 0.00 | 0.00 | 0.00 | 99 | 1019.4 |
| 20260831105004 | 67 | 186 | 0.0 | 0.0 | 0.00 | 0.00 | 0.00 | 99 | 1019.3 |
| 20260831104504 | 67 | 185 | 0.0 | 1.0 | 0.00 | 0.00 | 0.00 | 99 | 1019.3 |
| 20260831103504 | 67 | 190 | 0.0 | 0.0 | 0.00 | 0.00 | 0.00 | 99 | 1019.2 |
| 20260831103005 | 67 | 190 | 1.0 | 1.0 | 0.00 | 0.00 | 0.00 | 99 | 1019.2 |
| 20260831102505 | 67 | 254 | 0.0 | 1.0 | 0.00 | 0.00 | 0.00 | 99 | 1019.2 |
| 20260831102004 | 67 | 294 | 0.0 | 0.0 | 0.00 | 0.00 | 0.00 | 99 | 1019.1 |
| 20260831101503 | 67 | 331 | 0.0 | 0.0 | 0.00 | 0.00 | 0.00 | 99 | 1019.1 |
| 20260831101004 | 67 | 331 | 0.0 | 1.0 | 0.00 | 0.00 | 0.00 | 99 | 1019.1 |
| 20260831100505 | 67 | 317 | 0.0 | 0.0 | 0.00 | 0.00 | 0.00 | 99 | 1019.1 |
| 20260831100004 | 67 | 317 | 0.0 | 1.0 | 0.00 | 0.00 | 0.00 | 99 | 1019.1 |
| 20260831095504 | 67 | 309 | 0.0 | 1.0 | 0.00 | 0.00 | 0.00 | 99 | 1019.1 |
| 20260831094503 | 67 | 323 | 0.0 | 0.0 | 0.00 | 0.00 | 0.00 | 99 | 1019.1 |
| 20260831093004 | 67 | 357 | 0.0 | 0.0 | 0.00 | 0.00 | 0.00 | 99 | 1019.0 |
| 20260831092504 | 67 | 356 | 0.0 | 1.0 | 0.00 | 0.00 | 0.00 | 99 | 1019.0 |
| 20260831092003 | 67 | 296 | 0.0 | 0.0 | 0.00 | 0.00 | 0.00 | 99 | 1019.0 |
| 20260831091504 | 67 | 296 | 0.0 | 0.0 | 0.00 | 0.00 | 0.00 | 99 | 1019.0 |
| 20260831090505 | 68 | 296 | 0.0 | 0.0 | 0.00 | 0.00 | 0.00 | 99 | 1018.9 |
| 20260831090004 | 68 | 296 | 0.0 | 1.0 | 0.00 | 0.00 | 0.00 | 99 | 1018.9 |
| 20260831085504 | 68 | 224 | 0.0 | 0.0 | 0.00 | 0.00 | 0.00 | 99 | 1018.9 |
| 20260831085005 | 68 | 224 | 0.0 | 0.0 | 0.00 | 0.00 | 0.00 | 99 | 1018.9 |
| 20260831084504 | 68 | 222 | 0.0 | 1.0 | 0.00 | 0.00 | 0.00 | 99 | 1019.0 |
| 20260831083503 | 68 | 320 | 0.0 | 0.0 | 0.00 | 0.00 | 0.00 | 99 | 1019.1 |
| 20260831083004 | 68 | 320 | 0.0 | 0.0 | 0.00 | 0.00 | 0.00 | 99 | 1019.0 |
| 20260831082503 | 68 | 320 | 0.0 | 0.0 | 0.00 | 0.00 | 0.00 | 99 | 1019.0 |
| 20260831082004 | 68 | 320 | 0.0 | 0.0 | 0.00 | 0.00 | 0.00 | 99 | 1018.9 |
| 20260831081503 | 68 | 320 | 0.0 | 0.0 | 0.00 | 0.00 | 0.00 | 99 | 1019.0 |
| 20260831081003 | 68 | 320 | 0.0 | 0.0 | 0.00 | 0.00 | 0.00 | 99 | 1019.0 |
| 20260831080505 | 68 | 320 | 0.0 | 0.0 | 0.00 | 0.00 | 0.00 | 99 | 1019.0 |
| 20260831080003 | 69 | 320 | 0.0 | 0.0 | 0.00 | 0.00 | 0.00 | 99 | 1019.1 |
| 20260831075504 | 68 | 315 | 0.0 | 1.0 | 0.00 | 0.00 | 0.00 | 99 | 1019.1 |
| 20260831075004 | 68 | 306 | 0.0 | 1.0 | 0.00 | 0.00 | 0.00 | 99 | 1019.1 |
| 20260831074503 | 68 | 240 | 0.0 | 0.0 | 0.00 | 0.00 | 0.00 | 99 | 1019.1 |
| 20260831073503 | 69 | 215 | 0.0 | 0.0 | 0.00 | 0.00 | 0.00 | 99 | 1019.2 |
| 20260831073005 | 69 | 215 | 0.0 | 1.0 | 0.00 | 0.00 | 0.00 | 99 | 1019.2 |
| 20260831072504 | 69 | 192 | 0.0 | 0.0 | 0.00 | 0.00 | 0.00 | 99 | 1019.2 |
| 20260831072004 | 69 | 192 | 0.0 | 0.0 | 0.00 | 0.00 | 0.00 | 99 | 1019.3 |
| 20260831071004 | 69 | 192 | 0.0 | 0.0 | 0.00 | 0.00 | 0.00 | 99 | 1019.3 |
| 20260831070503 | 69 | 192 | 0.0 | 0.0 | 0.00 | 0.00 | 0.00 | 99 | 1019.2 |
| 20260831065505 | 69 | 192 | 0.0 | 1.0 | 0.00 | 0.00 | 0.00 | 99 | 1019.3 |
| 20260831065004 | 69 | 215 | 0.0 | 0.0 | 0.00 | 0.00 | 0.00 | 99 | 1019.4 |
| 20260831064004 | 69 | 172 | 0.0 | 0.0 | 0.00 | 0.00 | 0.00 | 99 | 1019.5 |
| 20260831063503 | 69 | 172 | 0.0 | 0.0 | 0.00 | 0.00 | 0.00 | 99 | 1019.6 |
| 20260831063003 | 69 | 172 | 0.0 | 0.0 | 0.00 | 0.00 | 0.00 | 99 | 1019.5 |
| 20260831062504 | 69 | 172 | 0.0 | 0.0 | 0.00 | 0.00 | 0.00 | 99 | 1019.5 |
| 20260831062003 | 69 | 172 | 0.0 | 0.0 | 0.00 | 0.00 | 0.00 | 99 | 1019.4 |
| 20260831061504 | 69 | 172 | 0.0 | 0.0 | 0.00 | 0.00 | 0.00 | 99 | 1019.3 |
| 20260831060504 | 69 | 172 | 0.0 | 0.0 | 0.00 | 0.00 | 0.00 | 99 | 1019.4 |
| 20260831060003 | 69 | 172 | 0.0 | 1.0 | 0.00 | 0.00 | 0.00 | 99 | 1019.5 |
| 20260831055504 | 70 | 115 | 0.0 | 1.0 | 0.00 | 0.00 | 0.00 | 99 | 1019.5 |
| 20260831054505 | 70 | 166 | 0.0 | 0.0 | 0.00 | 0.00 | 0.00 | 99 | 1019.5 |
| 20260831054004 | 70 | 166 | 0.0 | 0.0 | 0.00 | 0.00 | 0.00 | 99 | 1019.5 |
| 20260831053504 | 70 | 166 | 0.0 | 0.0 | 0.00 | 0.00 | 0.00 | 99 | 1019.4 |
| 20260831053006 | 70 | 166 | 0.0 | 0.0 | 0.00 | 0.00 | 0.00 | 99 | 1019.4 |
| 20260831052504 | 70 | 166 | 0.0 | 0.0 | 0.00 | 0.00 | 0.00 | 99 | 1019.4 |
| 20260831052004 | 70 | 166 | 1.0 | 1.0 | 0.00 | 0.00 | 0.00 | 99 | 1019.4 |
| 20260831051504 | 70 | 207 | 0.0 | 0.0 | 0.00 | 0.00 | 0.00 | 99 | 1019.4 |
| 20260831051004 | 70 | 189 | 0.0 | 0.0 | 0.00 | 0.00 | 0.00 | 98 | 1019.5 |
| 20260831050504 | 70 | 187 | 0.0 | 1.0 | 0.00 | 0.00 | 0.00 | 98 | 1019.5 |
| 20260831050004 | 70 | 199 | 0.0 | 0.0 | 0.00 | 0.00 | 0.00 | 98 | 1019.5 |
| 20260831045503 | 70 | 199 | 0.0 | 0.0 | 0.00 | 0.00 | 0.00 | 98 | 1019.6 |
| 20260831045004 | 70 | 199 | 0.0 | 1.0 | 0.00 | 0.00 | 0.00 | 98 | 1019.6 |
| 20260831043504 | 70 | 204 | 0.0 | 0.0 | 0.00 | 0.00 | 0.00 | 98 | 1019.6 |
| 20260831043004 | 71 | 204 | 0.0 | 0.0 | 0.00 | 0.00 | 0.00 | 98 | 1019.6 |
| 20260831042504 | 71 | 204 | 0.0 | 0.0 | 0.00 | 0.00 | 0.00 | 98 | 1019.7 |
| 20260831042003 | 71 | 204 | 0.0 | 0.0 | 0.00 | 0.00 | 0.00 | 98 | 1019.7 |
| 20260831041505 | 71 | 204 | 0.0 | 0.0 | 0.00 | 0.00 | 0.00 | 98 | 1019.7 |
| 20260831041004 | 71 | 204 | 0.0 | 0.0 | 0.00 | 0.00 | 0.00 | 98 | 1019.7 |
| 20260831040005 | 71 | 173 | 0.0 | 0.0 | 0.00 | 0.28 | 0.00 | 98 | 1019.6 |
| 20260831035504 | 71 | 173 | 0.0 | 0.0 | 0.00 | 0.28 | 0.00 | 98 | 1019.6 |
| 20260831035004 | 71 | 173 | 0.0 | 0.0 | 0.00 | 0.28 | 0.00 | 98 | 1019.6 |
| 20260831034504 | 71 | 173 | 0.0 | 0.0 | 0.00 | 0.28 | 0.00 | 98 | 1019.6 |
| 20260831034004 | 71 | 173 | 0.0 | 0.0 | 0.00 | 0.28 | 0.00 | 98 | 1019.6 |
| 20260831033504 | 71 | 173 | 0.0 | 0.0 | 0.00 | 0.28 | 0.00 | 98 | 1019.6 |
| 20260831033004 | 71 | 173 | 0.0 | 0.0 | 0.00 | 0.28 | 0.00 | 98 | 1019.6 |
| 20260831032504 | 71 | 173 | 0.0 | 0.0 | 0.00 | 0.28 | 0.00 | 98 | 1019.6 |
| 20260831032005 | 72 | 173 | 0.0 | 0.0 | 0.00 | 0.28 | 0.00 | 98 | 1019.6 |
| 20260831031504 | 72 | 173 | 0.0 | 1.0 | 0.00 | 0.28 | 0.00 | 98 | 1019.6 |
| 20260831031004 | 72 | 111 | 0.0 | 0.0 | 0.00 | 0.28 | 0.00 | 98 | 1019.6 |
| 20260831030503 | 72 | 111 | 0.0 | 1.0 | 0.00 | 0.28 | 0.00 | 98 | 1019.7 |
| 20260831030004 | 72 | 130 | 0.0 | 0.0 | 0.00 | 0.28 | 0.00 | 98 | 1019.8 |
| 20260831025506 | 72 | 104 | 0.0 | 0.0 | 0.00 | 0.28 | 0.00 | 97 | 1019.8 |
| 20260831025006 | 72 | 104 | 0.0 | 0.0 | 0.00 | 0.28 | 0.00 | 97 | 1019.8 |
| 20260831024504 | 72 | 330 | 0.0 | 0.0 | 0.00 | 0.28 | 0.00 | 97 | 1019.9 |
| 20260831024005 | 72 | 336 | 0.0 | 1.0 | 0.00 | 0.28 | 0.00 | 97 | 1019.8 |
| 20260831023503 | 73 | 38 | 0.0 | 1.0 | 0.00 | 0.28 | 0.00 | 97 | 1019.8 |
| 20260831023003 | 73 | 22 | 1.0 | 1.0 | 0.00 | 0.28 | 0.00 | 97 | 1019.9 |
| 20260831022503 | 73 | 260 | 0.0 | 1.0 | 0.00 | 0.28 | 0.00 | 97 | 1019.8 |
| 20260831022004 | 73 | 131 | 0.0 | 0.0 | 0.00 | 0.28 | 0.00 | 97 | 1019.8 |
| 20260831021504 | 73 | 131 | 0.0 | 0.0 | 0.00 | 0.28 | 0.00 | 97 | 1019.8 |
| 20260831021003 | 73 | 131 | 0.0 | 0.0 | 0.00 | 0.28 | 0.00 | 97 | 1019.8 |
| 20260831020504 | 73 | 131 | 0.0 | 0.0 | 0.00 | 0.28 | 0.00 | 97 | 1019.7 |
| 20260831020003 | 73 | 131 | 0.0 | 0.0 | 0.00 | 0.28 | 0.00 | 97 | 1019.6 |
| 20260831015503 | 73 | 118 | 0.0 | 1.0 | 0.00 | 0.28 | 0.00 | 97 | 1019.7 |
| 20260831015005 | 73 | 198 | 0.0 | 0.0 | 0.00 | 0.28 | 0.00 | 96 | 1019.7 |
| 20260831014504 | 74 | 198 | 0.0 | 0.0 | 0.00 | 0.28 | 0.00 | 96 | 1019.6 |
| 20260831014003 | 74 | 198 | 0.0 | 0.0 | 0.00 | 0.28 | 0.00 | 96 | 1019.6 |
| 20260831013504 | 74 | 198 | 0.0 | 0.0 | 0.00 | 0.28 | 0.00 | 96 | 1019.6 |
| 20260831013004 | 74 | 198 | 0.0 | 0.0 | 0.00 | 0.28 | 0.00 | 96 | 1019.5 |
| 20260831012503 | 74 | 234 | 0.0 | 0.0 | 0.00 | 0.28 | 0.00 | 96 | 1019.5 |
| 20260831012006 | 74 | 234 | 0.0 | 0.0 | 0.00 | 0.28 | 0.00 | 96 | 1019.5 |
| 20260831011503 | 74 | 207 | 0.0 | 1.0 | 0.00 | 0.28 | 0.00 | 95 | 1019.4 |
| 20260831011003 | 75 | 199 | 0.0 | 0.0 | 0.00 | 0.28 | 0.00 | 95 | 1019.5 |
| 20260831010504 | 75 | 237 | 0.0 | 0.0 | 0.00 | 0.28 | 0.00 | 95 | 1019.4 |
| 20260831010003 | 75 | 293 | 0.0 | 1.0 | 0.00 | 0.28 | 0.00 | 95 | 1019.4 |
| 20260831005004 | 75 | 52 | 0.0 | 1.0 | 0.00 | 0.28 | 0.00 | 95 | 1019.5 |
| 20260831004504 | 75 | 22 | 1.0 | 1.0 | 0.00 | 0.28 | 0.00 | 94 | 1019.5 |
| 20260831004005 | 76 | 237 | 0.0 | 1.0 | 0.00 | 0.28 | 0.00 | 94 | 1019.4 |
| 20260831003503 | 76 | 295 | 0.0 | 1.0 | 0.00 | 0.28 | 0.00 | 93 | 1019.3 |
| 20260831003003 | 76 | 271 | 0.0 | 1.0 | 0.00 | 0.28 | 0.00 | 93 | 1019.3 |
| 20260831002504 | 76 | 285 | 0.0 | 1.0 | 0.00 | 0.28 | 0.00 | 92 | 1019.3 |
| 20260831002007 | 76 | 29 | 0.0 | 1.0 | 0.00 | 0.28 | 0.00 | 92 | 1019.3 |
| 20260831001504 | 77 | 338 | 0.0 | 3.0 | 0.00 | 0.28 | 0.00 | 92 | 1019.2 |
| 20260831001004 | 77 | 285 | 0.0 | 1.0 | 0.00 | 0.28 | 0.00 | 91 | 1019.2 |
| 20260831000504 | 77 | 66 | 0.0 | 1.0 | 0.00 | 0.28 | 0.00 | 90 | 1019.2 |
| 20260831000002 | 78 | 312 | 0.0 | 1.0 | 0.00 | 0.28 | 0.00 | 90 | 1019.2 |
| 20260830235503 | 78 | 305 | 0.0 | 1.0 | 0.00 | 0.28 | 0.00 | 89 | 1019.1 |
| 20260830235003 | 78 | 170 | 0.0 | 1.0 | 0.00 | 0.28 | 0.00 | 88 | 1019.1 |
| 20260830234504 | 79 | 135 | 0.0 | 1.0 | 0.00 | 0.28 | 0.00 | 87 | 1019.2 |
| 20260830234004 | 79 | 133 | 0.0 | 1.0 | 0.00 | 0.28 | 0.00 | 86 | 1019.3 |
| 20260830233503 | 79 | 350 | 0.0 | 1.0 | 0.00 | 0.28 | 0.00 | 85 | 1019.3 |
| 20260830232503 | 80 | 320 | 0.0 | 1.0 | 0.00 | 0.28 | 0.00 | 83 | 1019.4 |